SCP
0 0 0 0 0 0 0 0 0 0 0 0 0 0 0 0 0 0 -0 0 -0 -0 -0 -0 -0 -0 -0 -0 -0 -0 -0 -0 -0 -0 -0 -0 -0 -0 -0 -0 -0 -0 -0 -0 -0 -0 -0 -0 -0
0 0 0 0 0 0 0 0 0 0 0 0 0 0 0 0 0 0 0 0 -0 -0 -0 -0 -0 -0 -1 -0 -0 -0 -0 -0 -0 -0 -0 -0 -0 -0 -0 -0 -0 -0 -0 -0 -0 -0 -0 -0 -0
0 0 0 0 0 0 0 0 0 0 0 0 0 0 0 0 0 0 0 0 -0 -0 -0 -0 -0 -0 -0 -0 -0 -0 -0 -0 -0 -0 -0 -0 -0 -0 -0 -0 -0 -0 -0 -0 -0 -0 -0 -0 -0
0 0 0 0 0 0 0 0 0 0 0 -0 0 0 0 0 0 0 0 0 -0 -0 0 -0 -0 -0 -0 -0 -0 -0 -0 -0 -0 -0 -0 -0 -0 -0 -0 -0 -0 -0 -0 -0 -0 0 0 0 0
0 0 0 0 0 0 0 0 0 0 0 0 0 0 0 0 0 0 0 0 0 0 0 0 0 0 -0 -0 -0 -0 -0 -0 -0 -0 -0 -0 -0 -0 -0 -0 0 0 0 0 0 0 0 0 0
0 0 0 0 0 0 0 0 0 0 0 0 0 0 0 0 0 0 0 0 0 0 0 0 0 0 0 -0 0 0 -0 -0 -0 -0 -0 -0 -0 -0 0 0 0 0 0 0 0 0 0 0 0
0 0 0 0 0 0 0 0 0 0 0 0 0 0 0 0 0 0 -0 0 0 0 0 0 0 0 0 0 0 0 0 0 0 0 0 0 0 0 0 0 0 0 0 0 0 0 0 0 0
0 0 0 0 0 0 0 0 0 0 0 0 0 0 0 0 0 0 0 0 0 0 0 0 0 0 0 0 0 0 0 0 0 0 0 0 0 0 0 0 0 0 0 0 0 0 0 0 0
0 0 0 0 0 0 0 0 0 0 0 0 0 0 0 0 0 0 0 0 0 0 0 0 0 0 0 0 0 0 0 0 0 0 0 0 0 0 0 0 0 0 0 0 0 0 0 0 0
0 0 0 0 0 0 0 0 0 0 0 0 0 0 0 0 0 0 0 0 0 0 0 0 0 0 0 0 0 0 0 0 0 0 0 0 0 0 0 0 0 0 0 0 0 0 0 0 0
0 0 0 0 0 0 0 0 0 0 0 0 0 0 0 0 0 0 0 0 0 0 0 0 0 0 0 0 0 0 0 0 0 0 0 0 0 0 0 0 0 0 0 0 0 0 0 0 0
0 0 0 0 0 0 0 0 0 0 0 0 0 0 0 0 0 0 0 0 0 0 0 0 0 0 0 0 0 0 0 0 0 0 0 0 0 0 0 0 0 0 0 0 0 0 0 0 0
0 -0 0 -0 -0 0 0 0 0 0 0 0 0 0 0 0 0 0 0 0 0 0 0 0 0 0 0 0 0 0 0 0 0 0 0 0 0 0 0 0 0 0 0 0 0 0 0 0 0
0 0 0 -0 0 0 0 0 0 0 0 0 0 0 0 0 0 0 0 0 0 0 0 0 0 0 0 0 0 0 0 0 0 0 0 0 0 0 0 0 0 0 0 0 0 0 0 0 0
0 0 0 0 0 0 0 0 -0 0 0 0 0 0 0 0 0 0 0 0 0 0 0 0 0 0 0 0 0 0 0 0 0 0 0 0 0 0 0 0 0 0 0 0 0 0 0 0 0
0 0 0 0 0 0 0 0 0 0 0 0 0 0 0 0 0 0 0 0 0 0 0 0 0 0 0 0 0 0 0 0 0 0 0 0 0 0 0 0 0 0 0 0 0 0 0 0 0
0 0 0 0 0 0 0 0 0 0 0 0 0 0 0 0 0 0 0 0 0 0 0 0 0 0 0 0 0 0 0 0 0 0 0 0 0 0 0 0 0 0 0 0 0 0 0 0 0
-0 0 0 0 0 0 0 0 0 0 0 0 0 0 0 0 0 0 0 0 0 0 0 0 0 0 0 0 0 0 0 0 0 0 0 0 0 0 0 0 0 0 0 0 0 0 0 0 0
0 0 0 0 0 0 0 0 0 0 0 0 0 0 0 0 0 0 0 0 0 0 0 0 0 0 0 0 0 0 0 0 0 0 0 0 0 0 0 0 0 0 0 0 0 0 0 0 0
0 0 0 0 0 0 0 0 0 0 0 0 0 0 0 0 0 0 0 0 0 0 0 0 0 0 0 0 0 0 0 0 0 0 0 0 0 0 0 0 0 0 0 0 0 0 0 0 0
0 0 0 0 0 -0 0 0 0 0 0 0 0 0 0 0 0 0 0 0 0 0 0 0 0 0 0 0 0 0 0 0 0 0 0 0 0 0 0 0 0 0 0 0 0 0 0 0 0
-0 0 0 -0 0 -0 0 0 0 0 0 0 0 0 0 0 0 0 0 0 0 -0 0 0 0 0 0 0 0 0 0 0 0 0 0 0 0 0 0 0 0 0 0 0 0 0 0 0 0
0 0 -0 -0 -0 -0 0 0 0 0 0 0 0 0 -0 -0 -0 -0 -0 -0 -0 -0 -0 -0 0 0 0 0 0 0 0 0 0 0 0 0 0 0 0 0 0 0 0 0 0 0 0 0 0
0 0 -0 0 -0 -0 0 0 0 0 0 0 0 0 0 -0 -0 -0 -0 -0 -0 -0 0 0 0 0 0 0 0 0 0 0 0 0 0 0 0 0 0 0 0 0 0 0 0 0 0 0 0
0 -0 -0 -0 -0 -0 0 0 0 0 0 0 0 0 -0 -0 -0 -0 -0 -0 -0 -0 -0 -0 0 0 0 0 0 0 0 0 0 0 0 0 0 0 0 0 0 0 0 0 0 0 0 0 0
-0 -0 -0 -0 -0 0 0 0 0 0 0 0 0 0 -0 -0 -0 -0 -0 -0 -0 0 -0 0 0 0 0 0 0 0 0 0 0 0 0 0 0 0 0 0 0 0 0 0 0 0 0 0 0
-0 -0 -0 -0 0 0 -0 0 0 0 0 0 0 0 -0 -0 -0 -0 -0 -0 0 0 0 0 0 0 0 0 0 0 0 0 0 0 0 0 0 0 0 0 0 0 0 0 0 0 0 0 0
0 0 0 0 -0 0 0 0 0 0 0 0 0 0 -0 -0 -0 0 -0 -0 -0 -0 0 0 0 0 0 0 0 0 0 0 0 0 0 0 0 0 0 0 0 0 0 0 0 0 0 0 0
0 0 0 0 0 0 0 0 0 0 0 0 0 0 0 0 0 0 0 -0 -0 -0 -0 -0 -0 -0 0 0 0 0 0 0 0 0 0 0 0 0 0 0 0 0 0 0 0 0 0 0 0
0 0 0 0 0 0 0 0 0 0 0 0 0 0 0 0 0 0 0 0 -0 -0 -0 -0 -0 -0 -0 -0 0 0 0 0 0 0 0 0 0 0 0 0 0 0 0 0 0 0 0 0 0
Wind_Speed_500mb
6 6 7 5 5 6 13 4 8 7 6 19 20 15 14 24 12 7 31 16 40 31 56 55 52 48 43 39 35 35 31 27 23 20 16 13 10 10 10 10 10 10 11 15 20 25 23 22 21
2 9 4 10 6 8 7 11 11 16 18 16 13 12 6 12 24 15 28 29 36 34 55 55 53 49 44 41 37 34 30 26 22 20 15 10 8 7 8 9 9 11 20 20 22 23 21 19 17
4 7 9 6 8 13 7 14 17 13 13 13 12 8 12 10 20 10 8 40 38 36 55 55 52 49 45 42 39 35 30 27 23 18 13 10 9 8 12 15 15 16 21 23 21 19 18 16 15
4 6 12 5 17 16 10 17 25 20 14 10 10 12 10 7 4 5 11 38 43 31 45 52 52 49 45 42 40 35 31 28 24 18 12 9 9 12 16 19 21 23 25 25 24 21 17 15 12
13 12 7 11 19 21 10 23 28 14 18 19 16 13 12 12 11 2 28 37 42 33 37 45 51 48 45 43 40 35 32 30 25 19 13 11 12 15 17 19 20 21 21 20 20 20 20 19 18
7 6 6 13 16 4 19 32 21 26 28 44 26 29 15 19 13 8 24 34 35 35 35 39 51 46 43 41 41 36 32 31 26 19 14 12 14 16 18 18 18 18 18 17 17 17 17 17 16
6 3 10 10 12 11 22 26 28 25 35 27 28 16 25 26 14 7 21 29 32 35 38 34 52 47 45 40 39 37 33 32 27 22 17 14 15 18 19 19 18 17 17 16 16 16 17 16 13
19 2 11 3 11 10 27 30 42 32 13 23 29 16 18 28 23 10 14 23 29 33 33 33 49 52 47 42 40 39 37 34 29 24 20 18 19 21 22 20 18 16 15 14 13 14 13 10 10
23 8 11 4 10 9 30 21 34 22 24 32 33 34 29 21 27 12 12 20 31 40 29 31 43 49 44 43 41 38 35 35 32 29 25 23 23 26 25 22 20 18 17 14 12 12 9 5 5
9 8 10 23 25 14 21 22 26 22 32 44 52 36 33 31 39 10 11 14 24 33 38 34 42 47 43 43 46 42 40 39 38 36 32 28 26 27 26 27 25 22 20 17 16 15 10 6 5
10 8 10 19 28 23 28 31 28 28 22 41 40 45 33 31 31 31 12 18 19 34 24 39 42 43 44 46 47 51 50 46 44 41 36 31 27 25 29 31 31 28 25 21 18 17 17 11 8
2 8 3 16 37 25 20 30 24 22 35 36 39 45 50 53 50 37 28 20 14 17 36 23 43 39 51 51 50 45 54 52 50 47 43 37 32 38 37 33 32 34 29 25 22 24 21 15 13
4 14 14 15 25 14 24 42 37 44 38 41 47 58 58 56 52 51 42 29 32 25 18 29 28 50 47 54 55 53 52 56 54 48 47 44 45 45 38 39 32 33 29 27 25 29 23 20 18
8 11 5 5 9 31 15 14 15 33 47 44 36 56 56 58 55 31 35 41 30 27 33 35 26 36 56 51 58 61 56 52 54 52 51 47 46 46 41 41 36 30 33 30 32 35 27 25 22
6 6 11 22 23 15 33 19 15 15 29 48 60 43 47 58 54 53 47 38 40 30 21 32 38 39 51 57 58 58 63 63 56 55 52 54 49 46 42 44 44 39 39 40 39 36 34 32 27
7 1 6 29 37 22 30 17 39 46 50 54 61 61 63 66 68 67 56 47 34 25 23 21 23 41 50 57 61 68 65 66 70 64 59 56 52 52 48 47 46 46 48 47 39 37 36 37 33
19 12 16 8 41 24 12 11 37 52 52 51 56 60 61 63 69 71 68 59 51 43 32 22 21 21 42 50 56 65 69 73 68 71 72 66 61 61 58 52 51 55 55 47 43 42 42 44 35
13 12 14 19 20 26 14 23 29 45 48 48 52 56 59 62 65 69 74 70 67 60 46 33 24 25 32 37 54 55 67 72 75 77 74 79 68 67 63 59 57 63 57 50 50 49 44 43 38
13 16 13 12 24 20 11 23 21 40 48 49 52 54 57 60 58 66 78 74 75 73 67 57 41 34 32 34 28 56 55 74 75 79 79 78 77 71 72 70 66 69 65 56 55 54 52 49 46
14 17 15 15 27 14 13 24 25 35 43 46 46 51 55 58 66 77 83 83 83 81 77 73 65 52 42 42 40 40 49 65 74 77 77 79 80 82 77 77 81 78 69 65 66 66 60 58 53
24 19 19 12 24 5 13 16 23 33 45 42 47 46 51 57 62 72 83 84 85 85 84 79 76 69 58 46 50 48 47 58 68 75 80 83 84 89 86 84 86 85 75 75 74 75 67 67 59
8 28 26 16 9 3 9 1 12 16 26 36 41 46 49 55 59 63 74 80 84 85 81 77 76 74 70 60 48 46 45 40 67 71 79 80 86 82 90 96 94 90 80 82 80 78 75 70 66
9 40 26 17 3 5 6 4 10 14 17 22 35 44 47 50 53 59 65 69 76 80 82 82 77 73 71 70 62 55 52 57 46 68 78 86 80 88 93 96 104 97 90 86 83 83 80 76 72
32 27 5 8 6 1 6 7 3 6 8 16 31 43 48 51 53 56 61 68 73 78 81 80 84 81 76 73 69 66 54 53 53 43 75 80 89 85 91 106 106 101 98 93 91 87 84 80 72
34 21 7 9 7 6 16 8 6 11 10 15 23 39 48 53 55 59 64 69 73 79 81 85 81 84 82 78 71 67 64 55 55 44 43 82 85 89 89 93 101 112 103 95 94 93 90 88 78
14 8 6 3 6 9 23 9 6 13 9 8 29 44 42 46 49 53 58 61 66 76 80 83 85 85 84 84 80 67 62 61 55 65 54 43 76 81 87 89 87 90 107 104 98 98 93 88 80
14 10 6 2 4 3 8 5 9 11 10 27 38 39 43 47 47 49 52 56 63 68 74 82 86 87 85 83 85 82 65 60 59 57 61 54 51 58 74 80 85 78 96 103 97 87 82 74 75
8 7 4 5 7 10 9 10 3 6 14 16 27 40 44 45 45 52 51 51 58 62 72 78 81 87 88 86 84 87 81 60 59 58 54 55 42 56 64 69 71 67 73 96 87 70 82 80 77
6 4 6 4 3 5 9 9 13 13 5 8 21 31 39 41 46 49 47 48 56 69 72 76 80 84 87 88 86 84 87 77 57 57 57 50 50 42 62 66 70 70 76 79 94 87 72 74 75
3 4 4 7 9 5 8 13 22 10 6 19 31 36 35 42 52 48 54 53 57 66 70 79 79 79 83 84 84 86 84 85 74 59 56 54 49 49 47 62 71 74 78 78 95 95 83 88 78
Wind_Direction_500mb
279 6 340 316 250 218 274 86 42 320 22 32 349 342 337 312 31 82 143 149 177 192 174 173 172 172 172 169 166 163 161 160 156 149 143 138 136 141 144 149 159 163 168 139 139 146 147 144 139
219 109 336 281 254 237 256 174 116 50 30 347 302 311 273 93 54 94 143 152 184 192 175 174 173 174 172 171 170 168 166 167 163 157 150 141 134 125 128 142 149 147 127 129 132 138 143 144 144
167 121 255 204 222 252 273 104 79 65 90 15 342 24 341 24 48 100 176 154 171 194 176 177 175 177 176 175 174 174 174 172 170 164 157 145 126 117 124 125 121 123 118 121 128 134 140 144 149
78 217 262 248 260 239 286 64 39 2 358 87 17 322 79 40 104 169 167 162 169 192 179 178 178 178 180 179 179 180 180 178 175 171 166 142 127 131 134 128 121 115 114 115 116 121 129 137 147
335 279 254 211 246 273 42 28 25 351 320 322 80 319 18 20 33 332 150 166 171 183 187 181 182 183 184 185 184 186 185 183 181 179 173 158 148 148 145 138 131 126 122 121 119 119 118 115 113
301 263 263 235 236 234 56 38 10 16 3 26 9 331 65 41 31 89 150 160 172 179 195 194 187 186 187 185 186 191 189 187 186 187 181 171 160 159 156 148 143 140 137 132 128 125 120 113 107
278 247 266 320 354 6 40 23 39 18 33 9 355 343 68 20 38 70 144 165 169 195 202 204 192 190 192 194 190 196 194 192 193 194 190 184 175 171 168 163 158 155 151 147 141 131 122 110 96
329 322 299 121 39 48 25 15 29 18 358 358 5 32 13 357 359 99 149 174 172 196 214 212 202 194 193 197 196 201 200 196 200 201 198 194 186 183 181 180 178 173 170 165 156 146 131 106 76
354 22 227 252 47 23 20 10 16 352 9 22 68 48 21 332 352 108 159 176 195 193 190 206 204 197 195 198 201 197 203 199 205 206 204 202 199 196 195 195 195 193 190 185 181 174 163 134 57
71 19 333 342 36 31 25 6 17 357 347 13 4 5 10 350 353 34 156 204 226 235 230 207 204 200 202 208 208 204 209 212 211 212 211 207 207 206 203 211 209 209 208 203 202 201 207 234 312
139 138 319 337 13 3 347 357 352 353 8 4 6 7 357 352 328 347 318 205 235 262 272 214 211 212 211 218 215 210 213 218 219 219 218 213 207 210 210 218 221 219 218 216 216 215 226 242 285
80 159 170 322 332 345 338 310 325 11 37 33 33 27 29 23 15 355 338 325 246 263 268 259 220 213 221 219 222 223 219 220 222 225 222 217 198 219 213 221 230 227 224 224 227 225 232 235 272
211 185 167 248 260 285 337 16 19 35 15 17 34 30 23 21 23 28 29 355 327 257 263 260 261 229 228 228 227 224 225 228 225 219 229 223 215 225 222 220 229 225 227 221 219 229 230 245 268
338 342 313 283 348 39 19 76 35 340 0 5 2 25 36 29 21 16 17 20 27 340 295 247 252 244 235 235 234 229 227 224 226 223 223 225 225 231 227 212 222 212 220 219 223 236 239 251 268
315 313 82 43 32 31 346 84 119 352 348 28 27 29 28 21 13 11 357 352 358 17 355 304 268 245 240 243 237 239 235 231 222 225 225 229 223 233 232 220 220 212 215 219 226 240 243 254 264
339 265 98 63 34 8 347 85 34 42 58 37 36 31 32 29 24 18 4 356 346 333 348 331 288 271 258 254 246 243 242 240 234 228 222 230 227 223 233 227 223 216 219 229 236 242 248 251 257
25 21 35 77 38 4 357 29 42 49 53 48 41 33 31 26 22 18 16 11 1 349 326 319 304 288 272 277 260 254 249 246 242 236 231 231 229 226 227 231 225 224 233 237 234 238 246 248 252
351 1 356 22 22 350 18 75 55 50 50 47 39 32 26 22 16 17 20 22 19 12 3 328 306 289 277 262 270 270 259 255 249 245 237 235 233 233 231 227 223 229 238 236 235 240 241 239 249
9 27 24 334 25 342 343 98 71 58 48 39 34 27 22 20 15 16 19 18 16 16 15 10 341 310 296 271 282 261 268 257 256 250 245 238 236 234 233 231 227 231 241 238 238 240 234 236 243
71 30 14 322 341 323 313 112 87 67 59 48 36 29 23 16 15 16 18 16 15 12 11 10 6 354 325 303 280 281 267 265 261 258 255 244 240 237 234 232 228 232 242 236 235 238 234 232 238
75 32 350 315 318 240 32 133 121 84 61 48 40 31 24 19 14 12 14 14 11 11 10 7 5 2 354 329 289 276 264 263 264 256 257 255 244 240 240 236 234 242 241 240 238 240 237 236 236
321 356 321 313 9 320 345 117 97 67 56 42 35 29 21 14 11 9 7 11 11 9 7 7 5 3 358 352 330 295 286 299 270 263 259 262 256 244 241 240 244 243 243 241 240 241 241 236 234
315 313 290 274 256 61 354 77 102 81 33 30 27 22 18 13 9 6 5 5 9 8 7 5 4 4 359 356 351 331 293 271 292 269 263 260 261 260 243 240 236 246 242 241 240 239 241 238 232
327 322 257 119 124 95 196 73 92 33 26 17 13 11 9 5 4 2 0 1 4 8 7 5 2 1 2 357 352 348 331 293 282 303 267 266 264 259 257 243 237 246 244 240 240 240 242 238 230
358 351 2 10 14 206 25 352 129 125 67 32 10 6 360 357 355 356 357 355 354 357 4 4 3 2 359 359 355 351 344 324 282 291 317 268 266 263 261 256 253 250 249 241 239 241 243 240 228
326 6 87 243 331 296 306 251 175 135 99 345 9 1 358 351 350 350 348 351 351 350 354 359 1 0 0 358 356 352 347 340 311 287 293 289 263 267 269 264 267 258 246 244 240 233 234 231 223
320 42 342 309 234 13 245 77 142 175 227 12 7 3 359 349 345 345 344 348 349 349 349 353 356 358 358 357 357 354 347 342 337 307 282 291 291 282 276 257 265 269 257 238 232 241 229 250 234
54 5 55 350 356 306 285 290 230 199 29 358 3 2 356 346 346 345 345 346 342 349 347 350 352 354 355 355 355 356 351 343 337 333 308 281 285 290 290 282 274 268 272 247 238 244 241 233 225
328 65 27 121 178 222 305 260 175 123 104 350 357 344 345 340 336 336 340 339 339 343 345 346 347 348 351 352 352 352 353 347 341 334 328 299 275 273 283 285 277 273 263 254 237 233 235 234 223
38 57 70 108 302 281 272 268 277 177 105 31 353 336 331 331 323 321 328 328 334 339 336 339 341 343 346 348 349 349 349 349 342 338 329 324 295 273 273 277 275 270 261 259 239 232 226 234 218
Wind_Speed_850mb
6 6 7 5 5 6 13 4 8 7 6 19 20 15 14 24 12 7 31 16 40 31 56 55 52 48 43 39 35 35 31 27 23 20 16 13 10 10 10 10 10 10 11 15 20 25 23 22 21
2 9 4 10 6 8 7 11 11 16 18 16 13 12 6 12 24 15 28 29 36 34 55 55 53 49 44 41 37 34 30 26 22 20 15 10 8 7 8 9 9 11 20 20 22 23 21 19 17
4 7 9 6 8 13 7 14 17 13 13 13 12 8 12 10 20 10 8 40 38 36 55 55 52 49 45 42 39 35 30 27 23 18 13 10 9 8 12 15 15 16 21 23 21 19 18 16 15
4 6 12 5 17 16 10 17 25 20 14 10 10 12 10 7 4 5 11 38 43 31 45 52 52 49 45 42 40 35 31 28 24 18 12 9 9 12 16 19 21 23 25 25 24 21 17 15 12
13 12 7 11 19 21 10 23 28 14 18 19 16 13 12 12 11 2 28 37 42 33 37 45 51 48 45 43 40 35 32 30 25 19 13 11 12 15 17 19 20 21 21 20 20 20 20 19 18
7 6 6 13 16 4 19 32 21 26 28 44 26 29 15 19 13 8 24 34 35 35 35 39 51 46 43 41 41 36 32 31 26 19 14 12 14 16 18 18 18 18 18 17 17 17 17 17 16
6 3 10 10 12 11 22 26 28 25 35 27 28 16 25 26 14 7 21 29 32 35 38 34 52 47 45 40 39 37 33 32 27 22 17 14 15 18 19 19 18 17 17 16 16 16 17 16 13
19 2 11 3 11 10 27 30 42 32 13 23 29 16 18 28 23 10 14 23 29 33 33 33 49 52 47 42 40 39 37 34 29 24 20 18 19 21 22 20 18 16 15 14 13 14 13 10 10
23 8 11 4 10 9 30 21 34 22 24 32 33 34 29 21 27 12 12 20 31 40 29 31 43 49 44 43 41 38 35 35 32 29 25 23 23 26 25 22 20 18 17 14 12 12 9 5 5
9 8 10 23 25 14 21 22 26 22 32 44 52 36 33 31 39 10 11 14 24 33 38 34 42 47 43 43 46 42 40 39 38 36 32 28 26 27 26 27 25 22 20 17 16 15 10 6 5
10 8 10 19 28 23 28 31 28 28 22 41 40 45 33 31 31 31 12 18 19 34 24 39 42 43 44 46 47 51 50 46 44 41 36 31 27 25 29 31 31 28 25 21 18 17 17 11 8
2 8 3 16 37 25 20 30 24 22 35 36 39 45 50 53 50 37 28 20 14 17 36 23 43 39 51 51 50 45 54 52 50 47 43 37 32 38 37 33 32 34 29 25 22 24 21 15 13
4 14 14 15 25 14 24 42 37 44 38 41 47 58 58 56 52 51 42 29 32 25 18 29 28 50 47 54 55 53 52 56 54 48 47 44 45 45 38 39 32 33 29 27 25 29 23 20 18
8 11 5 5 9 31 15 14 15 33 47 44 36 56 56 58 55 31 35 41 30 27 33 35 26 36 56 51 58 61 56 52 54 52 51 47 46 46 41 41 36 30 33 30 32 35 27 25 22
6 6 11 22 23 15 33 19 15 15 29 48 60 43 47 58 54 53 47 38 40 30 21 32 38 39 51 57 58 58 63 63 56 55 52 54 49 46 42 44 44 39 39 40 39 36 34 32 27
7 1 6 29 37 22 30 17 39 46 50 54 61 61 63 66 68 67 56 47 34 25 23 21 23 41 50 57 61 68 65 66 70 64 59 56 52 52 48 47 46 46 48 47 39 37 36 37 33
19 12 16 8 41 24 12 11 37 52 52 51 56 60 61 63 69 71 68 59 51 43 32 22 21 21 42 50 56 65 69 73 68 71 72 66 61 61 58 52 51 55 55 47 43 42 42 44 35
13 12 14 19 20 26 14 23 29 45 48 48 52 56 59 62 65 69 74 70 67 60 46 33 24 25 32 37 54 55 67 72 75 77 74 79 68 67 63 59 57 63 57 50 50 49 44 43 38
13 16 13 12 24 20 11 23 21 40 48 49 52 54 57 60 58 66 78 74 75 73 67 57 41 34 32 34 28 56 55 74 75 79 79 78 77 71 72 70 66 69 65 56 55 54 52 49 46
14 17 15 15 27 14 13 24 25 35 43 46 46 51 55 58 66 77 83 83 83 81 77 73 65 52 42 42 40 40 49 65 74 77 77 79 80 82 77 77 81 78 69 65 66 66 60 58 53
24 19 19 12 24 5 13 16 23 33 45 42 47 46 51 57 62 72 83 84 85 85 84 79 76 69 58 46 50 48 47 58 68 75 80 83 84 89 86 84 86 85 75 75 74 75 67 67 59
8 28 26 16 9 3 9 1 12 16 26 36 41 46 49 55 59 63 74 80 84 85 81 77 76 74 70 60 48 46 45 40 67 71 79 80 86 82 90 96 94 90 80 82 80 78 75 70 66
9 40 26 17 3 5 6 4 10 14 17 22 35 44 47 50 53 59 65 69 76 80 82 82 77 73 71 70 62 55 52 57 46 68 78 86 80 88 93 96 104 97 90 86 83 83 80 76 72
32 27 5 8 6 1 6 7 3 6 8 16 31 43 48 51 53 56 61 68 73 78 81 80 84 81 76 73 69 66 54 53 53 43 75 80 89 85 91 106 106 101 98 93 91 87 84 80 72
34 21 7 9 7 6 16 8 6 11 10 15 23 39 48 53 55 59 64 69 73 79 81 85 81 84 82 78 71 67 64 55 55 44 43 82 85 89 89 93 101 112 103 95 94 93 90 88 78
14 8 6 3 6 9 23 9 6 13 9 8 29 44 42 46 49 53 58 61 66 76 80 83 85 85 84 84 80 67 62 61 55 65 54 43 76 81 87 89 87 90 107 104 98 98 93 88 80
14 10 6 2 4 3 8 5 9 11 10 27 38 39 43 47 47 49 52 56 63 68 74 82 86 87 85 83 85 82 65 60 59 57 61 54 51 58 74 80 85 78 96 103 97 87 82 74 75
8 7 4 5 7 10 9 10 3 6 14 16 27 40 44 45 45 52 51 51 58 62 72 78 81 87 88 86 84 87 81 60 59 58 54 55 42 56 64 69 71 67 73 96 87 70 82 80 77
6 4 6 4 3 5 9 9 13 13 5 8 21 31 39 41 46 49 47 48 56 69 72 76 80 84 87 88 86 84 87 77 57 57 57 50 50 42 62 66 70 70 76 79 94 87 72 74 75
3 4 4 7 9 5 8 13 22 10 6 19 31 36 35 42 52 48 54 53 57 66 70 79 79 79 83 84 84 86 84 85 74 59 56 54 49 49 47 62 71 74 78 78 95 95 83 88 78
Wind_Direction_850mb
279 6 340 316 250 218 274 86 42 320 22 32 349 342 337 312 31 82 143 149 177 192 174 173 172 172 172 169 166 163 161 160 156 149 143 138 136 141 144 149 159 163 168 139 139 146 147 144 139
219 109 336 281 254 237 256 174 116 50 30 347 302 311 273 93 54 94 143 152 184 192 175 174 173 174 172 171 170 168 166 167 163 157 150 141 134 125 128 142 149 147 127 129 132 138 143 144 144
167 121 255 204 222 252 273 104 79 65 90 15 342 24 341 24 48 100 176 154 171 194 176 177 175 177 176 175 174 174 174 172 170 164 157 145 126 117 124 125 121 123 118 121 128 134 140 144 149
78 217 262 248 260 239 286 64 39 2 358 87 17 322 79 40 104 169 167 162 169 192 179 178 178 178 180 179 179 180 180 178 175 171 166 142 127 131 134 128 121 115 114 115 116 121 129 137 147
335 279 254 211 246 273 42 28 25 351 320 322 80 319 18 20 33 332 150 166 171 183 187 181 182 183 184 185 184 186 185 183 181 179 173 158 148 148 145 138 131 126 122 121 119 119 118 115 113
301 263 263 235 236 234 56 38 10 16 3 26 9 331 65 41 31 89 150 160 172 179 195 194 187 186 187 185 186 191 189 187 186 187 181 171 160 159 156 148 143 140 137 132 128 125 120 113 107
278 247 266 320 354 6 40 23 39 18 33 9 355 343 68 20 38 70 144 165 169 195 202 204 192 190 192 194 190 196 194 192 193 194 190 184 175 171 168 163 158 155 151 147 141 131 122 110 96
329 322 299 121 39 48 25 15 29 18 358 358 5 32 13 357 359 99 149 174 172 196 214 212 202 194 193 197 196 201 200 196 200 201 198 194 186 183 181 180 178 173 170 165 156 146 131 106 76
354 22 227 252 47 23 20 10 16 352 9 22 68 48 21 332 352 108 159 176 195 193 190 206 204 197 195 198 201 197 203 199 205 206 204 202 199 196 195 195 195 193 190 185 181 174 163 134 57
71 19 333 342 36 31 25 6 17 357 347 13 4 5 10 350 353 34 156 204 226 235 230 207 204 200 202 208 208 204 209 212 211 212 211 207 207 206 203 211 209 209 208 203 202 201 207 234 312
139 138 319 337 13 3 347 357 352 353 8 4 6 7 357 352 328 347 318 205 235 262 272 214 211 212 211 218 215 210 213 218 219 219 218 213 207 210 210 218 221 219 218 216 216 215 226 242 285
80 159 170 322 332 345 338 310 325 11 37 33 33 27 29 23 15 355 338 325 246 263 268 259 220 213 221 219 222 223 219 220 222 225 222 217 198 219 213 221 230 227 224 224 227 225 232 235 272
211 185 167 248 260 285 337 16 19 35 15 17 34 30 23 21 23 28 29 355 327 257 263 260 261 229 228 228 227 224 225 228 225 219 229 223 215 225 222 220 229 225 227 221 219 229 230 245 268
338 342 313 283 348 39 19 76 35 340 0 5 2 25 36 29 21 16 17 20 27 340 295 247 252 244 235 235 234 229 227 224 226 223 223 225 225 231 227 212 222 212 220 219 223 236 239 251 268
315 313 82 43 32 31 346 84 119 352 348 28 27 29 28 21 13 11 357 352 358 17 355 304 268 245 240 243 237 239 235 231 222 225 225 229 223 233 232 220 220 212 215 219 226 240 243 254 264
339 265 98 63 34 8 347 85 34 42 58 37 36 31 32 29 24 18 4 356 346 333 348 331 288 271 258 254 246 243 242 240 234 228 222 230 227 223 233 227 223 216 219 229 236 242 248 251 257
25 21 35 77 38 4 357 29 42 49 53 48 41 33 31 26 22 18 16 11 1 349 326 319 304 288 272 277 260 254 249 246 242 236 231 231 229 226 227 231 225 224 233 237 234 238 246 248 252
351 1 356 22 22 350 18 75 55 50 50 47 39 32 26 22 16 17 20 22 19 12 3 328 306 289 277 262 270 270 259 255 249 245 237 235 233 233 231 227 223 229 238 236 235 240 241 239 249
9 27 24 334 25 342 343 98 71 58 48 39 34 27 22 20 15 16 19 18 16 16 15 10 341 310 296 271 282 261 268 257 256 250 245 238 236 234 233 231 227 231 241 238 238 240 234 236 243
71 30 14 322 341 323 313 112 87 67 59 48 36 29 23 16 15 16 18 16 15 12 11 10 6 354 325 303 280 281 267 265 261 258 255 244 240 237 234 232 228 232 242 236 235 238 234 232 238
75 32 350 315 318 240 32 133 121 84 61 48 40 31 24 19 14 12 14 14 11 11 10 7 5 2 354 329 289 276 264 263 264 256 257 255 244 240 240 236 234 242 241 240 238 240 237 236 236
321 356 321 313 9 320 345 117 97 67 56 42 35 29 21 14 11 9 7 11 11 9 7 7 5 3 358 352 330 295 286 299 270 263 259 262 256 244 241 240 244 243 243 241 240 241 241 236 234
315 313 290 274 256 61 354 77 102 81 33 30 27 22 18 13 9 6 5 5 9 8 7 5 4 4 359 356 351 331 293 271 292 269 263 260 261 260 243 240 236 246 242 241 240 239 241 238 232
327 322 257 119 124 95 196 73 92 33 26 17 13 11 9 5 4 2 0 1 4 8 7 5 2 1 2 357 352 348 331 293 282 303 267 266 264 259 257 243 237 246 244 240 240 240 242 238 230
358 351 2 10 14 206 25 352 129 125 67 32 10 6 360 357 355 356 357 355 354 357 4 4 3 2 359 359 355 351 344 324 282 291 317 268 266 263 261 256 253 250 249 241 239 241 243 240 228
326 6 87 243 331 296 306 251 175 135 99 345 9 1 358 351 350 350 348 351 351 350 354 359 1 0 0 358 356 352 347 340 311 287 293 289 263 267 269 264 267 258 246 244 240 233 234 231 223
320 42 342 309 234 13 245 77 142 175 227 12 7 3 359 349 345 345 344 348 349 349 349 353 356 358 358 357 357 354 347 342 337 307 282 291 291 282 276 257 265 269 257 238 232 241 229 250 234
54 5 55 350 356 306 285 290 230 199 29 358 3 2 356 346 346 345 345 346 342 349 347 350 352 354 355 355 355 356 351 343 337 333 308 281 285 290 290 282 274 268 272 247 238 244 241 233 225
328 65 27 121 178 222 305 260 175 123 104 350 357 344 345 340 336 336 340 339 339 343 345 346 347 348 351 352 352 352 353 347 341 334 328 299 275 273 283 285 277 273 263 254 237 233 235 234 223
38 57 70 108 302 281 272 268 277 177 105 31 353 336 331 331 323 321 328 328 334 339 336 339 341 343 346 348 349 349 349 349 342 338 329 324 295 273 273 277 275 270 261 259 239 232 226 234 218